Airport Information

KEAT - Pangborn Field Airport

KEAT 191855Z AUTO 32013G22KT 10SM CLR 19/M02 A3001 RMK AO2 PK WND 33029/1824 SLP156 T01941022


  • General Information

  • Coordinates: N 47°23'52"/ W 120°12'21"
  • Location: N/A
  • Surveyed Elevation: 1249 MSL

Operations

Flow Name Active Runways Conditions

Green background denotes normal operations.


Common Frequencies

Callsign Frequency Position Name

More at the Document Center


Charts